Theta_e
312 307 305 310 314 316 316 311 312 315 320 316 316 317 319 325 326 323 320 325 324 329 335 339 344 346 345 344 341 341 343 341 351 353 350 349 349 353 353 353 351 351 353 355
306 305 312 316 317 316 315 311 311 316 320 314 312 314 320 325 326 325 324 324 327 327 326 334 344 344 340 340 344 344 343 345 346 355 353 354 352 351 352 351 351 350 350 348
303 308 316 314 313 313 312 310 312 311 316 316 314 308 316 321 330 328 327 325 327 327 324 334 342 347 345 343 346 345 343 348 352 356 356 354 351 350 344 343 346 349 348 349
304 312 312 312 310 313 304 317 317 314 310 303 311 298 311 314 318 324 325 327 327 326 330 337 339 345 348 348 351 348 347 360 356 357 354 350 347 344 348 343 349 350 348 347
304 308 308 308 311 315 311 318 314 314 308 301 305 300 309 314 313 316 321 329 329 332 336 337 339 343 351 355 356 359 360 359 359 353 354 350 348 349 351 352 345 350 354 353
307 313 310 310 314 316 320 314 312 311 304 296 304 304 306 308 313 318 321 325 331 335 335 339 340 346 349 353 355 358 357 357 356 355 356 350 348 347 348 347 344 348 347 348
304 308 311 313 306 311 311 306 300 298 295 296 302 304 306 316 317 320 319 322 330 334 335 338 343 345 347 349 352 356 356 353 356 356 357 356 351 351 349 347 347 343 338 341
297 297 306 311 307 305 308 304 298 293 295 296 306 300 304 316 320 323 325 327 329 329 334 340 345 346 348 349 354 356 356 355 356 354 354 354 354 351 349 347 345 342 336 341
297 300 310 311 312 310 306 301 306 302 301 299 302 308 312 317 318 318 322 326 327 329 333 339 344 346 346 348 354 356 354 353 354 354 356 352 350 350 346 342 337 337 340 340
302 296 307 309 311 312 307 312 300 302 295 295 300 302 304 312 314 316 322 324 327 329 331 337 340 345 347 350 353 355 355 353 355 355 353 350 349 345 342 339 337 340 340 341
303 298 302 308 305 304 305 304 306 304 302 296 295 301 315 314 317 319 322 326 327 328 329 336 340 345 347 351 353 354 353 353 354 354 350 350 349 340 338 336 338 339 341 344
305 299 295 301 309 314 309 306 308 299 298 301 302 301 319 319 321 323 323 324 328 329 332 339 341 343 347 349 352 352 353 353 353 350 347 344 342 338 335 337 341 342 344 343
302 296 292 297 303 310 307 307 305 306 305 300 301 303 317 316 318 319 320 321 327 327 333 338 342 344 347 349 349 351 351 348 348 345 342 339 337 338 342 344 346 346 344 343
310 297 295 293 303 310 306 309 310 302 299 303 305 307 311 312 316 320 323 327 324 324 325 340 342 343 347 352 350 346 346 344 342 340 338 339 339 345 347 347 346 346 346 344
302 295 297 305 308 310 310 309 310 307 307 302 307 309 313 316 319 317 326 325 328 322 325 342 343 347 349 349 348 347 349 344 343 344 341 339 342 346 345 346 344 345 344 345
303 297 299 298 309 310 309 309 310 310 311 310 311 309 316 319 320 320 320 321 333 339 342 344 347 347 347 349 350 350 349 348 346 343 343 345 344 342 345 342 343 344 343 341
306 298 296 294 305 307 302 307 310 309 311 312 305 310 318 318 322 321 322 321 338 339 342 344 345 348 349 350 351 348 347 348 345 343 343 343 342 342 341 343 342 340 339 339
312 301 299 298 303 295 306 313 313 311 313 312 315 316 319 317 317 318 324 321 335 342 344 345 345 348 351 352 351 348 345 344 341 340 340 340 339 340 341 342 337 336 334 332
314 302 298 299 299 305 309 313 312 309 308 317 317 320 319 319 319 320 335 324 336 345 346 345 344 347 345 346 345 335 331 330 338 336 336 337 336 338 338 336 332 329 325 324
314 309 302 299 299 297 308 317 319 317 304 319 321 320 318 321 311 315 325 346 345 345 343 343 344 345 341 340 335 331 333 333 332 332 333 338 337 334 329 327 327 327 327 324
306 305 300 301 299 308 317 320 321 304 312 326 323 323 321 322 318 319 336 338 339 341 343 345 344 342 342 339 337 331 329 327 331 338 336 331 327 328 326 325 325 325 325 320
304 305 302 300 298 304 321 321 313 316 323 333 339 339 338 339 339 339 338 338 338 339 341 342 339 340 340 337 335 334 332 335 333 327 325 325 322 323 324 321 323 313 310 310
307 310 308 310 309 317 319 318 323 323 318 320 336 339 338 337 337 338 336 336 336 337 335 336 335 334 335 333 331 327 329 328 324 321 321 323 320 321 320 321 315 310 308 307
315 317 314 312 316 319 318 321 322 322 322 321 329 339 339 335 335 333 335 334 334 334 332 333 331 329 327 328 327 325 325 325 323 320 318 320 316 318 316 315 315 310 306 306
316 316 314 314 315 320 321 323 323 326 328 323 337 339 338 336 334 334 334 333 334 333 332 331 329 327 324 323 322 323 322 323 320 318 314 313 314 313 316 313 313 309 307 307
316 313 313 312 317 319 319 325 327 323 331 335 335 333 334 336 334 336 334 334 333 332 331 329 327 324 322 321 321 320 320 319 318 316 311 307 311 309 309 311 307 310 307 305
Wind_Speed
9 4 7 14 15 6 3 0 7 11 10 1 11 11 10 17 23 16 9 9 12 12 7 13 18 18 14 10 6 6 7 6 4 3 3 3 3 3 3 3 6 3 1 2
7 11 12 17 16 3 6 13 18 7 8 4 5 4 10 17 23 23 18 11 11 8 4 8 19 19 18 15 8 8 9 7 6 4 3 4 3 2 4 3 2 2 3 2
10 10 16 18 17 12 10 14 7 7 3 5 2 7 9 4 19 13 5 6 6 3 9 12 19 21 17 14 12 11 9 8 6 7 3 2 3 4 2 3 3 4 3 3
9 16 16 16 12 12 3 12 17 6 4 4 5 6 4 2 4 21 20 14 8 3 17 13 14 19 18 16 14 14 13 10 7 6 4 4 3 2 2 4 4 5 6 4
15 14 13 15 15 5 7 15 8 7 6 3 7 5 6 6 4 5 7 18 16 11 22 16 15 15 20 18 14 13 11 9 7 7 4 4 3 2 2 2 2 3 6 3
12 14 12 15 13 10 16 5 6 10 4 6 10 1 4 4 9 6 12 11 27 30 31 20 15 16 15 14 13 10 9 7 8 6 5 5 2 2 1 2 3 4 5 5
13 15 14 9 8 11 5 7 2 6 4 4 6 8 8 16 11 10 15 9 18 24 17 17 18 16 14 14 13 10 9 7 7 7 6 6 5 3 2 4 3 5 3 2
7 9 8 9 11 7 8 8 7 7 3 4 9 4 8 7 8 10 14 8 15 17 18 18 18 15 16 14 13 12 10 7 7 7 6 6 4 3 4 5 4 4 4 2
7 11 10 14 13 8 11 3 5 7 2 5 4 13 9 6 4 9 7 11 12 15 17 19 17 15 13 13 13 13 10 7 7 7 7 6 5 7 5 6 4 4 3 2
14 8 10 13 12 7 8 4 5 4 6 3 4 4 5 8 21 4 10 11 13 15 12 15 13 15 13 13 14 13 11 9 7 8 7 5 5 6 5 5 5 4 3 2
12 5 20 6 8 9 5 3 4 2 8 5 1 5 6 2 3 13 4 15 15 14 10 13 11 13 14 14 15 13 11 10 9 8 7 6 5 4 4 5 5 4 2 5
11 4 6 11 8 15 10 12 13 7 9 7 7 6 5 9 3 12 16 5 17 16 14 16 14 10 13 12 14 13 10 9 10 7 7 6 6 4 4 5 4 3 6 5
6 4 5 12 12 7 12 8 10 9 7 6 7 5 7 8 13 16 17 9 15 20 7 13 14 13 11 11 11 8 7 9 8 8 7 5 5 4 6 6 6 5 5 4
8 2 6 7 6 4 6 7 15 6 4 3 2 5 5 2 2 12 4 11 24 25 23 10 14 12 10 8 8 8 8 8 8 8 8 6 5 6 6 6 6 6 5 4
6 3 6 1 6 4 10 21 19 22 6 7 10 7 6 6 6 2 4 13 13 20 20 15 16 11 12 12 9 8 9 10 8 8 8 6 5 7 6 7 6 5 6 5
6 6 5 4 8 10 14 16 20 25 8 9 12 2 2 6 7 1 4 6 8 18 15 16 13 15 13 13 12 9 8 9 9 9 8 6 5 6 6 6 5 5 6 6
6 4 3 8 10 9 9 7 16 2 12 16 9 8 6 4 3 4 5 6 17 17 13 14 15 15 13 12 11 9 8 7 7 8 7 7 7 6 5 5 6 6 6 6
15 7 5 3 5 2 8 14 8 14 8 13 16 18 17 14 10 7 4 5 6 12 10 11 9 9 13 10 11 13 9 8 6 7 9 12 11 10 8 6 5 6 5 5
9 4 3 7 3 7 7 8 7 7 4 11 21 17 19 6 8 12 16 10 10 9 8 7 6 6 10 14 16 11 7 9 8 7 8 8 10 7 3 4 5 4 3 4
17 10 7 3 8 6 8 5 15 7 4 9 30 25 20 10 12 8 8 6 12 9 8 11 11 12 14 12 16 14 8 7 7 7 6 5 6 9 6 3 2 2 3 3
12 11 11 8 6 4 1 14 13 6 1 8 21 19 15 11 14 13 9 9 8 8 13 15 14 13 12 13 14 13 8 7 6 5 7 7 7 8 5 3 1 2 5 6
3 7 5 6 7 3 5 5 9 7 7 6 16 19 19 20 19 13 12 11 11 14 14 15 13 12 9 9 12 11 9 5 7 8 7 6 7 4 3 1 5 8 7 7
3 4 7 5 3 2 4 12 11 14 7 11 7 16 18 17 15 14 10 9 11 13 11 9 11 12 9 11 10 10 5 7 7 7 7 7 5 3 1 3 6 5 6 6
4 5 5 7 11 7 4 2 9 16 10 11 14 14 15 14 14 14 11 11 10 11 11 11 12 11 9 7 7 7 6 6 7 7 6 5 5 3 3 4 5 5 5 4
2 5 8 2 10 11 9 8 11 19 19 19 9 16 15 13 12 11 11 9 8 10 9 9 9 10 10 8 7 6 5 6 6 6 4 3 3 3 4 5 4 5 3 5
4 4 5 4 6 5 10 10 8 14 19 16 15 13 11 11 12 10 10 9 7 9 10 10 9 9 8 8 7 6 5 6 5 5 3 3 4 3 3 5 3 5 9 9
Wind_Direction
234 204 225 252 252 239 270 172 279 273 294 65 176 196 216 136 130 161 172 179 189 226 182 207 154 152 162 163 171 169 171 192 158 167 166 201 221 255 332 252 68 221 120 109
254 222 234 249 256 213 7 280 270 255 284 165 275 213 193 139 155 167 176 183 225 120 229 223 154 155 168 177 168 168 189 194 186 163 177 184 150 232 259 293 285 287 61 71
218 234 225 244 260 246 186 244 279 191 246 257 338 311 139 133 161 170 171 211 275 326 202 229 161 157 171 174 177 174 185 198 190 185 160 139 63 91 44 261 235 228 210 244
242 239 245 234 245 259 203 287 299 229 156 241 188 243 128 114 118 180 190 200 203 121 273 224 158 165 168 174 173 170 180 185 184 177 156 150 145 147 216 206 208 220 225 213
248 242 242 251 241 135 219 244 281 323 283 274 324 92 295 328 262 253 202 170 185 57 291 209 170 155 153 154 159 156 155 151 156 150 121 135 130 175 323 105 192 244 259 151
228 245 241 243 256 194 161 234 316 336 289 53 325 8 267 210 217 242 262 160 170 174 220 178 161 139 133 128 128 131 129 141 134 136 133 128 151 157 20 29 17 1 66 81
266 245 255 236 267 283 221 139 56 303 16 210 332 0 214 225 214 214 230 249 147 165 152 134 132 135 133 133 135 133 131 141 146 158 167 163 169 189 92 57 56 37 52 84
235 279 246 253 207 226 241 199 159 214 124 254 3 301 263 262 241 212 247 176 122 122 127 129 137 135 137 136 138 135 132 140 147 153 151 137 125 81 89 77 54 67 67 69
227 240 236 228 252 189 268 260 218 104 184 78 213 247 321 340 280 195 143 120 118 122 124 125 133 137 134 133 130 133 133 140 157 154 131 131 132 109 100 95 96 99 75 39
261 296 259 212 224 220 190 189 6 20 163 178 276 215 213 147 266 206 136 123 116 117 122 131 134 130 136 133 137 139 146 164 162 140 136 150 136 125 135 117 109 105 101 36
232 208 277 294 197 190 248 158 187 233 146 161 217 297 17 244 13 36 252 137 130 131 133 133 131 140 140 138 143 148 158 169 144 145 152 147 139 147 142 139 151 141 139 76
222 204 265 250 241 192 199 196 201 145 269 227 116 237 220 282 221 74 29 165 153 142 125 123 129 126 132 137 143 159 170 147 148 148 127 143 139 153 147 151 147 103 59 41
224 254 268 308 324 223 199 233 209 191 203 273 127 208 196 265 90 94 122 279 83 40 22 130 126 131 140 145 155 149 140 120 128 125 127 129 125 74 65 59 68 56 43 41
94 289 181 214 231 64 305 308 320 245 256 121 145 172 255 272 253 137 157 156 130 145 222 169 135 143 143 126 113 107 106 121 130 123 132 143 120 98 81 70 47 27 16 15
118 237 276 27 133 175 183 264 286 293 169 129 183 193 220 243 331 41 141 123 201 163 203 158 141 136 133 126 122 129 120 138 135 121 128 133 109 89 70 61 34 357 349 348
160 232 262 216 231 207 217 257 274 280 106 97 102 36 64 257 221 286 327 21 143 142 149 158 128 139 141 142 141 137 128 130 127 125 125 114 88 69 61 40 3 23 20 5
322 175 191 262 248 204 245 229 255 340 118 142 140 201 180 259 197 234 199 50 149 157 152 150 152 150 155 150 141 125 113 108 98 105 104 86 64 53 20 54 56 47 26 11
276 229 155 181 34 268 256 252 286 289 163 182 133 162 166 177 173 249 67 129 245 146 138 146 150 151 155 146 138 105 130 113 129 118 86 69 55 39 9 46 46 46 37 16
267 193 205 127 178 291 323 282 255 189 289 89 134 145 176 147 35 356 319 266 231 132 120 100 84 94 107 115 106 132 85 83 85 98 93 103 109 86 27 55 45 28 31 23
319 266 174 172 144 202 252 293 344 347 36 126 150 168 158 122 89 285 293 59 81 76 75 98 98 85 89 102 121 114 99 125 120 98 101 93 78 84 94 76 43 328 27 343
337 277 193 214 211 130 177 294 311 83 10 335 152 165 161 164 162 187 202 90 81 80 80 89 92 97 95 113 116 107 108 98 103 110 83 79 74 95 94 56 326 351 31 46
270 290 271 212 201 240 28 21 92 248 318 294 100 116 108 117 129 129 115 97 87 95 95 97 95 89 93 92 96 96 92 114 99 97 98 94 81 73 96 31 46 68 58 46
237 52 306 302 147 35 337 129 150 84 53 258 69 110 113 123 122 115 114 106 105 109 105 93 99 99 98 97 100 102 105 104 100 101 101 108 108 128 73 83 99 79 65 59
269 356 271 2 14 2 278 200 107 80 79 281 269 113 106 118 129 134 137 138 128 121 114 110 105 96 86 76 95 111 122 119 119 117 122 129 125 157 100 101 102 88 84 84
245 330 337 300 346 359 114 314 165 158 181 207 165 122 131 146 143 138 139 136 127 123 127 117 117 117 118 118 109 109 120 129 124 126 120 102 175 119 103 74 131 136 152 144
209 211 330 248 220 149 264 287 318 261 192 157 135 134 142 140 147 153 146 136 131 128 125 120 119 120 119 117 117 118 102 92 134 119 114 94 108 92 106 135 112 47 144 128